Weather History for Valley City, ND

Change the Weather History Date:

Sunday, May 11, 2014

  Actual Average (KJMS) Record (KJMS)
Temperature  
Mean Temperature 46 °F 54 °F  
Max Temperature 51 °F 67 °F 92 °F (1900)
Min Temperature 41 °F 41 °F 17 °F (1946)
Degree Days  
Heating Degree Days 19 12  
Month to date heating degree days 150  
Since 1 July heating degree days 8744  
Cooling Degree Days 0 0  
Month to date cooling degree days 0  
Year to date cooling degree days 2  
Moisture  
Dew Point 47 °F    
Average Humidity 99    
Maximum Humidity 100    
Minimum Humidity 87    
Precipitation  
Precipitation 0.03 in 0.08 in 0.89 in (1953)
Month to date precipitation 0.84  
Year to date precipitation 3.73  
Sea Level Pressure  
Sea Level Pressure 29.85 in    
Wind  
Wind Speed 11 mph (NNW)    
Max Wind Speed 22 mph    
Max Gust Speed 28 mph    
Visibility 8 miles    
Events Fog , Rain    
T = Trace of Precipitation, MM = Missing Value Source: NWS Daily Summary

Daily Weather History Graph

Daily Weather History Graph

Search for Another Location

Airport:

Trip Planner

Search our weather history database for the weather conditions in past years. The results will help you decide how hot, cold, wet, or windy it might be!

Date:

Astronomy

May. 11, 2014 Rise Set
Actual Time 6:01 AM CDT 8:55 PM CDT
Civil Twilight 5:26 AM CDT 9:31 PM CDT
Nautical Twilight 4:41 AM CDT 10:16 PM CDT
Astronomical Twilight 3:47 AM CDT 11:11 PM CDT
Moon 5:41 PM CDT (5/11) 4:21 AM CDT (5/11)
Length of Visible Light 16h 04m
Length of Day
14h 53m
Waxing Gibbous, 89% of the Moon is Illuminated
May 11
Waxing Gibbous
May 14
Full
May 21
Last Quarter
May 28
New
Jun 5
First Quarter

Hourly Weather History & Observations

Time (CDT) Temp. Windchill Dew Point Humidity Pressure Visibility Wind Dir Wind Speed Gust Speed Precip Events Conditions
12:15 AM 50.0 °F - 50.0 °F 100% 29.67 in 10.0 mi ESE 6.9 mph - N/A   Overcast
12:35 AM 50.0 °F - 50.0 °F 100% 29.68 in 10.0 mi SE 8.1 mph - N/A   Mostly Cloudy
12:55 AM 48.2 °F - 48.2 °F 100% 29.67 in 10.0 mi ESE 6.9 mph - N/A   Partly Cloudy
1:15 AM 46.4 °F - 46.4 °F 100% 29.68 in 10.0 mi Calm Calm - N/A   Clear
1:35 AM 48.2 °F - 48.2 °F 100% 29.68 in 10.0 mi Calm Calm - N/A   Clear
1:55 AM 48.2 °F - 48.2 °F 100% 29.68 in 10.0 mi NNE 3.5 mph - N/A   Clear
2:15 AM 42.8 °F 38.6 °F 42.8 °F 100% 29.69 in 1.0 mi North 6.9 mph - N/A   Clear
2:35 AM 42.8 °F 39.3 °F 42.8 °F 100% 29.69 in 0.5 mi NNW 5.8 mph - N/A Fog Fog
2:55 AM 42.8 °F 38.0 °F 42.8 °F 100% 29.70 in 0.2 mi NNW 8.1 mph - N/A Fog Fog
3:15 AM 41.0 °F 35.2 °F 41.0 °F 100% 29.70 in 0.2 mi WNW 9.2 mph - N/A Fog Fog
3:35 AM 44.6 °F 39.7 °F 44.6 °F 100% 29.71 in 0.8 mi NNW 9.2 mph - N/A   Overcast
4:15 AM 44.6 °F 41.4 °F 44.6 °F 100% 29.72 in 0.2 mi NW 5.8 mph - N/A Fog Fog
4:35 AM 44.6 °F 39.7 °F 44.6 °F 100% 29.73 in 0.8 mi WNW 9.2 mph - N/A   Overcast
4:55 AM 46.4 °F 41.5 °F 46.4 °F 100% 29.74 in 5.0 mi WNW 10.4 mph - N/A   Overcast
5:15 AM 46.4 °F 41.5 °F 46.4 °F 100% 29.75 in 6.0 mi WNW 10.4 mph - N/A   Overcast
5:35 AM 46.4 °F 41.1 °F 46.4 °F 100% 29.76 in 8.0 mi WNW 11.5 mph - N/A   Overcast
5:55 AM 46.4 °F 40.1 °F 46.4 °F 100% 29.75 in 5.0 mi NW 15.0 mph - N/A   Scattered Clouds
6:15 AM 46.4 °F 40.7 °F 46.4 °F 100% 29.76 in 4.0 mi NW 12.7 mph - N/A   Clear
6:35 AM 46.4 °F 41.5 °F 46.4 °F 100% 29.78 in 5.0 mi NW 10.4 mph - N/A   Mostly Cloudy
6:55 AM 48.2 °F - 48.2 °F 100% 29.79 in 5.0 mi WNW 9.2 mph - N/A   Overcast
7:15 AM 48.2 °F - 48.2 °F 100% 29.79 in 5.0 mi WNW 10.4 mph - N/A   Overcast
7:35 AM 48.2 °F - 48.2 °F 100% 29.79 in 7.0 mi NW 11.5 mph - N/A   Overcast
7:55 AM 50.0 °F - 50.0 °F 100% 29.79 in 7.0 mi NW 9.2 mph - N/A   Overcast
8:15 AM 50.0 °F - 50.0 °F 100% 29.79 in 9.0 mi NNW 11.5 mph - N/A   Overcast
8:35 AM 50.0 °F - 50.0 °F 100% 29.80 in 9.0 mi NNW 10.4 mph - N/A   Overcast
8:55 AM 50.0 °F - 50.0 °F 100% 29.81 in 9.0 mi NNW 12.7 mph - N/A   Overcast
9:15 AM 48.2 °F - 48.2 °F 100% 29.81 in 4.0 mi North 12.7 mph - N/A   Overcast
9:35 AM 48.2 °F - 48.2 °F 100% 29.83 in 3.0 mi NNW 10.4 mph - N/A   Overcast
9:55 AM 48.2 °F - 48.2 °F 100% 29.84 in 9.0 mi NNW 9.2 mph - N/A   Overcast
10:15 AM 50.0 °F - 50.0 °F 100% 29.86 in 10.0 mi NNW 10.4 mph - N/A   Overcast
10:35 AM 50.0 °F - 50.0 °F 100% 29.86 in 10.0 mi NNW 9.2 mph - N/A   Overcast
10:55 AM 50.0 °F - 50.0 °F 100% 29.87 in 10.0 mi NW 11.5 mph - N/A   Overcast
11:15 AM 50.0 °F - 50.0 °F 100% 29.89 in 10.0 mi NW 15.0 mph - N/A   Overcast
11:35 AM 50.0 °F - 50.0 °F 100% 29.89 in 10.0 mi NW 18.4 mph - N/A   Overcast
11:55 AM 50.0 °F - 50.0 °F 100% 29.90 in 10.0 mi NW 16.1 mph 21.9 mph N/A   Overcast
12:15 PM 50.0 °F - 50.0 °F 100% 29.91 in 10.0 mi NW 15.0 mph 20.7 mph N/A   Overcast
12:35 PM 51.8 °F - 50.0 °F 94% 29.91 in 10.0 mi NNW 13.8 mph - N/A   Overcast
12:55 PM 51.8 °F - 50.0 °F 94% 29.91 in 10.0 mi NW 17.3 mph - N/A   Overcast
1:15 PM 51.8 °F - 51.8 °F 100% 29.90 in 10.0 mi NW 18.4 mph 24.2 mph N/A   Overcast
1:35 PM 50.0 °F - 50.0 °F 100% 29.91 in 10.0 mi NNW 18.4 mph - N/A   Overcast
1:55 PM 50.0 °F - 50.0 °F 100% 29.90 in 10.0 mi NW 21.9 mph - N/A   Overcast
2:15 PM 51.8 °F - 50.0 °F 94% 29.90 in 10.0 mi NNW 19.6 mph 25.3 mph N/A   Overcast
2:35 PM 51.8 °F - 50.0 °F 94% 29.89 in 10.0 mi NNW 17.3 mph 24.2 mph N/A   Overcast
2:55 PM 51.8 °F - 50.0 °F 94% 29.89 in 10.0 mi NNW 18.4 mph 24.2 mph N/A   Overcast
3:15 PM 51.8 °F - 50.0 °F 94% 29.91 in 10.0 mi NNW 18.4 mph 24.2 mph N/A   Overcast
3:35 PM 50.0 °F - 48.2 °F 94% 29.91 in 10.0 mi NNW 18.4 mph 25.3 mph N/A   Overcast
3:55 PM 50.0 °F - 48.2 °F 94% 29.91 in 10.0 mi NNW 18.4 mph - N/A   Overcast
4:15 PM 50.0 °F - 48.2 °F 94% 29.93 in 10.0 mi NNW 17.3 mph 21.9 mph N/A   Overcast
4:35 PM 48.2 °F - 48.2 °F 100% 29.93 in 10.0 mi NNW 18.4 mph 24.2 mph N/A   Overcast
4:55 PM 48.2 °F - 48.2 °F 100% 29.92 in 10.0 mi NNW 19.6 mph - N/A   Overcast
5:15 PM 48.2 °F - 48.2 °F 100% 29.93 in 10.0 mi North 17.3 mph 21.9 mph N/A   Overcast
5:35 PM 50.0 °F - 48.2 °F 94% 29.92 in 10.0 mi NNW 17.3 mph - N/A   Overcast
5:55 PM 50.0 °F - 48.2 °F 94% 29.93 in 10.0 mi NNW 16.1 mph 24.2 mph N/A   Overcast
6:15 PM 50.0 °F - 46.4 °F 87% 29.92 in 10.0 mi NNW 15.0 mph 25.3 mph N/A   Overcast
6:35 PM 48.2 °F - 46.4 °F 93% 29.91 in 10.0 mi NNW 18.4 mph 24.2 mph N/A   Overcast
6:55 PM 48.2 °F - 46.4 °F 93% 29.92 in 10.0 mi NNW 17.3 mph 23.0 mph N/A   Overcast
7:15 PM 48.2 °F - 48.2 °F 100% 29.93 in 10.0 mi NNW 20.7 mph 26.5 mph N/A   Overcast
7:35 PM 48.2 °F - 48.2 °F 100% 29.95 in 10.0 mi NNW 17.3 mph 26.5 mph N/A   Overcast
7:55 PM 46.4 °F 39.5 °F 46.4 °F 100% 29.96 in 10.0 mi NNW 17.3 mph - N/A   Overcast
8:15 PM 46.4 °F 39.0 °F 46.4 °F 100% 29.95 in 10.0 mi NNW 19.6 mph 23.0 mph N/A   Overcast
8:35 PM 46.4 °F 39.5 °F 46.4 °F 100% 29.96 in 10.0 mi NNW 17.3 mph 26.5 mph N/A   Overcast
8:55 PM 46.4 °F 40.1 °F 46.4 °F 100% 29.96 in 10.0 mi NNW 15.0 mph 21.9 mph N/A   Overcast
9:15 PM 46.4 °F 40.4 °F 46.4 °F 100% 29.97 in 10.0 mi NNW 13.8 mph 18.4 mph N/A   Overcast
9:35 PM 44.6 °F 36.6 °F 44.6 °F 100% 29.97 in 10.0 mi NNW 19.6 mph 24.2 mph N/A   Overcast
9:55 PM 44.6 °F 36.6 °F 44.6 °F 100% 29.98 in 10.0 mi NNW 19.6 mph 23.0 mph N/A   Overcast
10:15 PM 44.6 °F 36.9 °F 44.6 °F 100% 29.98 in 10.0 mi NNW 18.4 mph 25.3 mph N/A Rain Light Rain
10:35 PM 42.8 °F 33.8 °F 42.8 °F 100% 29.98 in 10.0 mi NNW 21.9 mph 27.6 mph N/A Rain Light Rain
10:55 PM 42.8 °F 34.8 °F 42.8 °F 100% 29.99 in 6.0 mi North 17.3 mph 21.9 mph 0.01 in   Overcast
11:15 PM 41.0 °F 32.5 °F 41.0 °F 100% 29.99 in 5.0 mi North 17.3 mph - 0.01 in   Mostly Cloudy
11:35 PM 41.0 °F 32.8 °F 41.0 °F 100% 29.98 in 10.0 mi North 16.1 mph 23.0 mph 0.02 in Rain Light Rain
11:55 PM 41.0 °F 32.5 °F 41.0 °F 100% 30.00 in 10.0 mi North 17.3 mph 21.9 mph 0.02 in Rain Light Rain